When you browse on this site, cookies collect data to enhance your experience and personalize the content and advertising you see.
Visit our Privacy Policy to learn more. By continuing to use the site, you agree to this use of cookies and data.
  • In Österreich
  • Länderverzeichnis
  • Für 7 Tage
  • Wassertemperatur
  • Satellitenkarten
  • Wetterkarte
  • News
  • Widgets
  • user-avatar
    Anmelden

    Stündliche Wetter Mons

    Heute, 14 Dezember, Freitag

    Zeit Temperatur Niederschläge Wind Luftdruck Luftfeuchtigkeit
    00:00 -2°C° 0 mm 3 m/S 762 mmHg 79%
    01:00 -2°C° 0 mm 3 m/S 762 mmHg 80%
    02:00 -2°C° 0 mm 3 m/S 762 mmHg 82%
    03:00 -2°C° 0 mm 3 m/S 762 mmHg 83%
    04:00 -2°C° 0 mm 3 m/S 763 mmHg 85%
    05:00 -2°C° 0 mm 3 m/S 763 mmHg 86%
    06:00 -4°C° 0 mm 3 m/S 763 mmHg 88%
    07:00 -2°C° 0 mm 3 m/S 763 mmHg 87%
    08:00 -2°C° 0 mm 3 m/S 763 mmHg 85%
    09:00 -2°C° 0 mm 3 m/S 764 mmHg 84%
    10:00 -1°C° 0 mm 3 m/S 764 mmHg 79%
    11:00 0°C° 0 mm 3 m/S 764 mmHg 74%
    12:00 +1°C° 0 mm 3 m/S 764 mmHg 69%
    13:00 +1°C° 0 mm 3 m/S 764 mmHg 70%
    14:00 +1°C° 0 mm 2 m/S 764 mmHg 72%
    15:00 +1°C° 0 mm 2 m/S 764 mmHg 74%
    16:00 -1°C° 0 mm 2 m/S 765 mmHg 77%
    17:00 -1°C° 0 mm 2 m/S 765 mmHg 81%
    18:00 -2°C° 0 mm 2 m/S 765 mmHg 84%
    19:00 -2°C° 0 mm 2 m/S 765 mmHg 84%
    20:00 -2°C° 0 mm 2 m/S 765 mmHg 84%
    21:00 -2°C° 0 mm 2 m/S 766 mmHg 83%
    22:00 -3°C° 0 mm 2 m/S 766 mmHg 82%
    23:00 -3°C° 0 mm 2 m/S 766 mmHg 82%

    Morgen, 15 Dezember, Samstag

    Zeit Temperatur Niederschläge Wind Luftdruck Luftfeuchtigkeit
    00:00 -3°C° 0 mm 2 m/S 766 mmHg 81%
    01:00 -1°C° 0 mm 1 m/S 766 mmHg 80%
    02:00 -1°C° 0 mm 1 m/S 766 mmHg 79%
    03:00 -1°C° 0 mm 1 m/S 766 mmHg 79%
    04:00 -3°C° 0 mm 2 m/S 765 mmHg 78%
    05:00 -3°C° 0 mm 2 m/S 765 mmHg 77%
    06:00 -4°C° 0 mm 3 m/S 765 mmHg 76%
    07:00 -4°C° 0 mm 3 m/S 765 mmHg 74%
    08:00 -2°C° 0 mm 3 m/S 765 mmHg 71%
    09:00 -2°C° 0 mm 3 m/S 765 mmHg 68%
    10:00 -2°C° 0 mm 4 m/S 764 mmHg 64%
    11:00 -1°C° 0 mm 5 m/S 764 mmHg 60%
    12:00 0°C° 0 mm 5 m/S 763 mmHg 55%
    13:00 0°C° 0 mm 5 m/S 762 mmHg 56%
    14:00 0°C° 0 mm 5 m/S 762 mmHg 57%
    15:00 -1°C° 0 mm 5 m/S 761 mmHg 58%
    16:00 -1°C° 0.1 mm 6 m/S 760 mmHg 59%
    17:00 -1°C° 0.1 mm 6 m/S 760 mmHg 60%
    18:00 -1°C° 0.1 mm 7 m/S 760 mmHg 61%
    19:00 -1°C° 0.8 mm 8 m/S 759 mmHg 68%
    20:00 -1°C° 0.8 mm 8 m/S 758 mmHg 75%
    21:00 -3°C° 0.8 mm 9 m/S 757 mmHg 82%
    22:00 -1°C° 1.7 mm 9 m/S 757 mmHg 83%
    23:00 -1°C° 1.7 mm 8 m/S 756 mmHg 85%

    übermorgen, 16 Dezember, Sonntag

    Zeit Temperatur Niederschläge Wind Luftdruck Luftfeuchtigkeit
    00:00 -1°C° 1.7 mm 8 m/S 756 mmHg 87%
    01:00 -1°C° 0.5 mm 7 m/S 755 mmHg 89%
    02:00 -1°C° 0.5 mm 6 m/S 755 mmHg 90%
    03:00 0°C° 0.5 mm 5 m/S 755 mmHg 92%
    04:00 0°C° 0 mm 5 m/S 755 mmHg 93%
    05:00 0°C° 0 mm 4 m/S 755 mmHg 94%
    06:00 0°C° 0 mm 4 m/S 755 mmHg 96%
    07:00 +1°C° 0 mm 3 m/S 755 mmHg 96%
    08:00 +1°C° 0 mm 3 m/S 756 mmHg 96%
    09:00 +2°C° 0 mm 3 m/S 756 mmHg 96%
    10:00 +2°C° 0.1 mm 3 m/S 756 mmHg 96%
    11:00 +3°C° 0.1 mm 3 m/S 756 mmHg 95%
    12:00 +4°C° 0.1 mm 3 m/S 756 mmHg 94%
    13:00 +3°C° 0.1 mm 3 m/S 756 mmHg 94%
    14:00 +3°C° 0.1 mm 3 m/S 756 mmHg 95%
    15:00 +3°C° 0.1 mm 3 m/S 756 mmHg 95%
    16:00 +2°C° 0 mm 3 m/S 757 mmHg 95%
    17:00 +2°C° 0 mm 3 m/S 757 mmHg 95%
    18:00 +1°C° 0 mm 3 m/S 757 mmHg 94%
    19:00 +1°C° 0 mm 3 m/S 758 mmHg 95%
    20:00 +1°C° 0 mm 3 m/S 758 mmHg 95%
    21:00 +1°C° 0 mm 3 m/S 758 mmHg 95%
    22:00 +1°C° 0 mm 3 m/S 758 mmHg 95%
    23:00 +1°C° 0 mm 3 m/S 758 mmHg 95%

    17 Dezember, Montag

    Zeit Temperatur Niederschläge Wind Luftdruck Luftfeuchtigkeit
    00:00 +1°C° 0 mm 3 m/S 758 mmHg 96%
    01:00 +2°C° 0 mm 3 m/S 758 mmHg 96%
    02:00 +2°C° 0 mm 3 m/S 758 mmHg 96%
    03:00 +2°C° 0 mm 3 m/S 758 mmHg 96%
    04:00 +2°C° 0.2 mm 3 m/S 758 mmHg 96%
    05:00 +2°C° 0.2 mm 3 m/S 759 mmHg 96%
    06:00 +2°C° 0.2 mm 3 m/S 759 mmHg 96%
    07:00 +2°C° 0.1 mm 3 m/S 760 mmHg 96%
    08:00 +3°C° 0.1 mm 2 m/S 760 mmHg 96%
    09:00 +3°C° 0.1 mm 2 m/S 761 mmHg 96%
    10:00 +3°C° 0 mm 3 m/S 761 mmHg 94%
    11:00 +4°C° 0 mm 3 m/S 762 mmHg 92%
    12:00 +5°C° 0 mm 3 m/S 762 mmHg 90%
    13:00 +5°C° 0 mm 3 m/S 762 mmHg 92%
    14:00 +4°C° 0 mm 3 m/S 762 mmHg 93%
    15:00 +4°C° 0 mm 3 m/S 763 mmHg 94%
    16:00 +4°C° 0 mm 3 m/S 763 mmHg 94%
    17:00 +3°C° 0 mm 4 m/S 763 mmHg 94%
    18:00 +3°C° 0 mm 4 m/S 764 mmHg 94%
    19:00 +3°C° 0 mm 4 m/S 764 mmHg 93%
    20:00 +2°C° 0 mm 5 m/S 764 mmHg 93%
    21:00 +2°C° 0 mm 5 m/S 764 mmHg 92%
    22:00 +3°C° 0 mm 5 m/S 764 mmHg 93%
    23:00 +3°C° 0 mm 6 m/S 764 mmHg 93%

    18 Dezember, Dienstag

    Zeit Temperatur Niederschläge Wind Luftdruck Luftfeuchtigkeit
    00:00 +3°C° 0 mm 6 m/S 763 mmHg 93%
    01:00 +3°C° 0 mm 6 m/S 763 mmHg 93%
    02:00 +4°C° 0 mm 6 m/S 763 mmHg 94%
    03:00 +4°C° 0 mm 6 m/S 762 mmHg 94%
    04:00 +4°C° 0 mm 6 m/S 762 mmHg 93%
    05:00 +4°C° 0 mm 7 m/S 762 mmHg 92%
    06:00 +4°C° 0 mm 7 m/S 761 mmHg 90%
    07:00 +4°C° 0 mm 7 m/S 761 mmHg 88%
    08:00 +4°C° 0 mm 7 m/S 761 mmHg 85%
    09:00 +4°C° 0 mm 7 m/S 761 mmHg 82%
    10:00 +4°C° 0 mm 8 m/S 759 mmHg 76%
    11:00 +5°C° 0 mm 8 m/S 758 mmHg 71%
    12:00 +6°C° 0 mm 9 m/S 757 mmHg 65%
    13:00 +6°C° 0 mm 9 m/S 756 mmHg 64%
    14:00 +6°C° 0 mm 9 m/S 756 mmHg 63%
    15:00 +5°C° 0 mm 9 m/S 755 mmHg 62%
    16:00 +5°C° 0.2 mm 9 m/S 754 mmHg 64%
    17:00 +5°C° 0.2 mm 9 m/S 753 mmHg 66%
    18:00 +5°C° 0.2 mm 9 m/S 753 mmHg 69%
    19:00 +6°C° 0.9 mm 9 m/S 753 mmHg 74%
    20:00 +6°C° 0.9 mm 9 m/S 753 mmHg 79%
    21:00 +6°C° 0.9 mm 9 m/S 753 mmHg 84%
    22:00 +6°C° 0 mm 8 m/S 754 mmHg 85%
    23:00 +6°C° 0 mm 7 m/S 754 mmHg 87%

    19 Dezember, Mittwoch

    Zeit Temperatur Niederschläge Wind Luftdruck Luftfeuchtigkeit
    00:00 +7°C° 0 mm 6 m/S 755 mmHg 88%
    01:00 +5°C° 0 mm 6 m/S 755 mmHg 89%
    02:00 +5°C° 0 mm 6 m/S 755 mmHg 90%
    03:00 +4°C° 0 mm 6 m/S 755 mmHg 90%
    04:00 +4°C° 0 mm 6 m/S 755 mmHg 91%
    05:00 +4°C° 0 mm 6 m/S 755 mmHg 92%
    06:00 +4°C° 0 mm 6 m/S 755 mmHg 92%
    07:00 +4°C° 0 mm 6 m/S 755 mmHg 91%
    08:00 +5°C° 0 mm 6 m/S 755 mmHg 91%
    09:00 +5°C° 0 mm 6 m/S 755 mmHg 90%
    10:00 +5°C° 0 mm 6 m/S 755 mmHg 89%
    11:00 +5°C° 0 mm 6 m/S 755 mmHg 88%
    12:00 +7°C° 0 mm 6 m/S 754 mmHg 86%
    13:00 +7°C° 0 mm 6 m/S 754 mmHg 87%
    14:00 +7°C° 0 mm 6 m/S 754 mmHg 87%
    15:00 +7°C° 0 mm 5 m/S 753 mmHg 87%
    16:00 +7°C° 0 mm 5 m/S 753 mmHg 87%
    17:00 +7°C° 0 mm 5 m/S 753 mmHg 88%
    18:00 +7°C° 0 mm 5 m/S 753 mmHg 88%
    19:00 +6°C° 0 mm 5 m/S 753 mmHg 89%
    20:00 +6°C° 0 mm 5 m/S 753 mmHg 91%
    21:00 +6°C° 0 mm 5 m/S 753 mmHg 92%
    22:00 +6°C° 0 mm 5 m/S 752 mmHg 92%
    23:00 +6°C° 0 mm 5 m/S 752 mmHg 92%
    Mehr zeigen